Header for Extended Forecast Station List Page

Search by: ID | Name | Date | Parm | Value | Avg | % Avg
Sort by: ID | Name | Date | Parm | Value | Avg | % Avg

Enter search or view all records.

Click on id for station plot
#IDNameDateParmValueAvg% Avg
0HWRI1BIG LOST-AT HOWELL RANCH NEAR CHILLY01-13-2020DISCHARGE (KAF)242982
1MACI1BIG LOST-MACKAY RESERVOIR NEAR MACKAY01-13-2020INFLOW (KAF)3617206
2HALI1BIG WOOD-AT HAILEY01-13-2020DISCHARGE (KAF)556881
3MAGI1BIG WOOD-MAGIC DAM01-13-2020INFLOW (KAF)8412468
4BITM8BITTERROOT-NEAR MISSOULA01-13-2020DISCHARGE (KAF)33537290
5BONM8BLACKFOOT-NEAR BONNER01-13-2020DISCHARGE (KAF)26026498
6BIGI1BOISE-AT GLENWOOD BRIDGE01-13-2020DISCHARGE (KAF)275179154
7LUCI1BOISE-LUCKY PEAK DAM01-13-2020INFLOW (KAF)588MM
8PARI1BOISE-NEAR PARMA01-13-2020DISCHARGE (KAF)370315118
9HOTI1BRUNEAU-NEAR HOT SPRINGS01-13-2020DISCHARGE (KAF)839290
10BULO3BULLY CREEK-BULLY CREEK DAM01-13-2020INFLOW (KAF)4939
11BUDW1BUMPING-BUMPING LAKE DAM01-13-2020INFLOW (KAF)5450109
12CHDW1CHELAN-LAKE CHELAN DAM01-13-2020INFLOW (KAF)23629979
13ABOM8CLARK FORK-ABOVE MISSOULA01-13-2020DISCHARGE (KAF)51554495
14DLGM8CLARK FORK-AT DEER LODGE01-13-2020DISCHARGE (KAF)606691
15SRGM8CLARK FORK-AT ST REGIS01-13-2020DISCHARGE (KAF)1081131282
16BELM8CLARK FORK-BELOW MISSOULA01-13-2020DISCHARGE (KAF)85192792
17CABI1CLARK FORK-CABINET GORGE DAM01-13-2020INFLOW (KAF)3578484474
18NOXM8CLARK FORK-NOXON RAPIDS DAM01-13-2020INFLOW (KAF)3206461469
19DRMM8CLARK FORK-NR DRUMMOND01-13-2020DISCHARGE (KAF)170MM
20CLUW1CLE ELUM-CLE ELUM LAKE01-13-2020INFLOW (KAF)209171122
21ORFI1CLEARWATER-AT OROFINO01-13-2020DISCHARGE (KAF)21112080102
22SPDI1CLEARWATER-AT SPALDING01-13-2020DISCHARGE (KAF)2782375174
23COEI1COEUR D ALENE-COEUR D ALENE LAKE01-13-2020INFLOW (KAF)2091211199
24CIBW1COLUMBIA-AT INTL BOUNDARY01-13-2020DISCHARGE (KAF)16842MM
25BONO3COLUMBIA-BONNEVILLE DAM01-13-2020INFLOW (KAF)372244611781
26CHJW1COLUMBIA-CHIEF JOSEPH DAM01-13-2020INFLOW (KAF)224962402594
27GCDW1COLUMBIA-GRAND COULEE DAM01-13-2020INFLOW (KAF)2003919572102
28JDAO3COLUMBIA-JOHN DAY DAM01-13-2020INFLOW (KAF)357684054088
29MCDW1COLUMBIA-MCNARY DAM01-13-2020INFLOW (KAF)339223827889
30PRWW1COLUMBIA-PRIEST RAPIDS DAM01-13-2020INFLOW (KAF)2403623335103
31RRHW1COLUMBIA-ROCKY REACH DAM01-13-2020INFLOW (KAF)235152510794
32TDAO3COLUMBIA-THE DALLES DAM01-13-2020INFLOW (KAF)362684321084
33WANW1COLUMBIA-WANAPUM DAM01-13-2020INFLOW (KAF)2403723088104
34WELW1COLUMBIA-WELLS DAM01-13-2020INFLOW (KAF)230762467294
35DEDI1DEADWOOD-NEAR LOWMAN01-13-2020INFLOW (KAF)363990
36MODO3DESCHUTES-AT MOODY NR BIGGS01-13-2020DISCHARGE (KAF)1430160789
37ARDW1ENTIAT-NEAR ARDENVOIR01-13-2020DISCHARGE (KAF)404786
38CHEI1FALL RIVER-NEAR CHESTER01-13-2020DISCHARGE (KAF)151149102
39CFMM8FLATHEAD-AT COLUMBIA FALLS01-13-2020DISCHARGE (KAF)1439164787
40KERM8FLATHEAD-KERR DAM01-13-2020INFLOW (KAF)1698214279
41TRYO3GRANDE RONDE-TROY01-13-2020DISCHARGE (KAF)76787288
42REXI1HENRYS FORK-AT REXBURG01-13-2020DISCHARGE (KAF)502496101
43ANTI1HENRYS FORK-AT ST. ANTHONY01-13-2020DISCHARGE (KAF)441423104
44IPDI1HENRYS FORK-ISLAND PARK DAM01-13-2020INFLOW (KAF)133131102
45HODO3HOOD-NEAR TUCKER BRIDGE01-13-2020DISCHARGE (KAF)310292106
46SERO3JOHN DAY-AT SERVICE CK01-13-2020DISCHARGE (KAF)48472067
47KADW1KACHESS-KACHESS DAM01-13-2020INFLOW (KAF)8968131
48LAUW1KETTLE-AT LAURIER01-13-2020DISCHARGE (KAF)718569126
49PITW1KLICKITAT-NEAR PITT01-13-2020DISCHARGE (KAF)36348275
50BFEI1KOOTENAI-AT BONNERS FERRY01-13-2020STAGE (FT)MMM
51LEOI1KOOTENAI-AT LEONIA01-13-2020DISCHARGE (KAF)1534182784
52LYDM8KOOTENAI-LIBBY DAM01-13-2020INFLOW (KAF)1164126892
53LWRI1LITTLE WOOD-LITTLE WOOD DAM01-13-2020INFLOW (KAF)323984
54BERO3MALHEUR-AGENCY VALLEY DAM01-13-2020INFLOW (KAF)304764
55WRMO3MALHEUR-WARM SPRINGS DAM01-13-2020INFLOW (KAF)547572
56MYKO3MCKAY CREEK-NEAR PILOT ROCK01-13-2020DISCHARGE (KAF)364286
57PATW1METHOW-NEAR PATEROS01-13-2020DISCHARGE (KAF)20322092
58WGCM8MF FLATHEAD-NEAR WEST GLACIER01-13-2020DISCHARGE (KAF)29537778
59CLFW1NACHES-NEAR CLIFFDEL01-13-2020DISCHARGE (KAF)15519878
60NACW1NACHES-NEAR NACHES01-13-2020DISCHARGE (KAF)20522691
61DWRI1NF CLEARWATER-DWORSHAK DAM01-13-2020INFLOW (KAF)16261551105
62FCFM8NF FLATHEAD-NEAR COLUMBIA FALLS01-13-2020DISCHARGE (KAF)39440398
63MONO3NF JOHN DAY-AT MONUMENT01-13-2020DISCHARGE (KAF)32048166
64CSDI1NF PAYETTE-CASCADE DAM01-13-2020INFLOW (KAF)20721198
65TONW1OKANOGAN-NEAR TONASKET01-13-2020DISCHARGE (KAF)38845685
66OWYO3OWYHEE-OWYHEE DAM01-13-2020INFLOW (KAF)26331683
67EMMI1PAYETTE-NEAR EMMETT01-13-2020DISCHARGE (KAF)54370677
68ALFW1PEND OREILLE-ALBENI FALLS DAM01-13-2020INFLOW (KAF)4648587879
69HOPI1PEND OREILLE-PEND OREILLE LAKE NR HOPE01-13-2020LAKE ELEVATION (FT)MMM
70PIHI1PORTNEUF-AT POCATELLO01-13-2020DISCHARGE (KAF)719376
71PRTI1PRIEST-NEAR PRIEST RIVER01-13-2020DISCHARGE (KAF)458376122
72RCCM8ROCK CREEK-NEAR CLINTON01-13-2020DISCHARGE (KAF)667292
73WHBI1SALMON-AT WHITEBIRD01-13-2020DISCHARGE (KAF)1301177373
74ARAI1SF BOISE-ANDERSON RANCH DAM01-13-2020INFLOW (KAF)20122589
75HHWM8SF FLATHEAD-HUNGRY HORSE DAM01-13-2020INFLOW (KAF)57557999
76PLDI1SF SNAKE-PALISADES DAM01-13-2020INFLOW (KAF)72190180
77SIFI1SNAKE-AB EAGLE ROCK NR IDAHO FALLS01-13-2020DISCHARGE (KAF)1006113189
78AFRI1SNAKE-AMERICAN FALLS RESERVOIR01-13-2020INFLOW (KAF)1407179179
79SNAI1SNAKE-AT BLACKFOOT01-13-2020DISCHARGE (KAF)813102979
80MILI1SNAKE-AT MILNER01-13-2020DISCHARGE (KAF)107771
81WEII1SNAKE-AT WEISER01-13-2020DISCHARGE (KAF)3285478869
82SWAI1SNAKE-BELOW SWAN FALLS01-13-2020DISCHARGE (KAF)1771274065
83BRNI1SNAKE-BROWNLEE DAM01-13-2020INFLOW (KAF)3631513271
84IHDW1SNAKE-ICE HARBOR DAM01-13-2020INFLOW (KAF)90351273371
85JLKW4SNAKE-JACKSON LAKE AT DAM01-13-2020INFLOW (KAF)15817093
86LGSW1SNAKE-LITTLE GOOSE DAM01-13-2020INFLOW (KAF)87181260969
87LGDW1SNAKE-LOWER GRANITE DAM01-13-2020INFLOW (KAF)87181256969
88LMNW1SNAKE-LOWER MONUMENTAL DAM01-13-2020INFLOW (KAF)90351289270
89ALPW4SNAKE-NEAR ALPINE01-13-2020DISCHARGE (KAF)41553977
90ANAW1SNAKE-NEAR ANATONE01-13-2020DISCHARGE (KAF)5936870068
91BFTI1SNAKE-NEAR BLACKFOOT01-13-2020DISCHARGE (KAF)803107375
92HEII1SNAKE-NEAR HEISE01-13-2020DISCHARGE (KAF)80094285
93JKSW4SNAKE-NEAR JACKSON01-13-2020DISCHARGE (KAF)28540570
94SHYI1SNAKE-NEAR SHELLEY01-13-2020DISCHARGE (KAF)951115782
95LLKW1SPOKANE-AT LONGLAKE01-13-2020INFLOW (KAF)2320255291
96SPOW1SPOKANE-AT SPOKANE01-13-2020DISCHARGE (KAF)1970MM
97SJMI1ST JOE-AT ST MARIES01-13-2020STAGE (FT)MMM
98SATI1ST MARIES-NEAR SANTA01-13-2020DISCHARGE (KAF)10712685
99STRM8ST. REGIS-NEAR ST. REGIS01-13-2020DISCHARGE (KAF)8713166
100TNAW1TEANAWAY-BELOW FORKS01-13-2020DISCHARGE (KAF)122106115
101TEAI1TETON-NEAR ST. ANTHONY01-13-2020DISCHARGE (KAF)129128101
102RILW1TIETON-RIMROCK LAKE NEAR RIMROCK01-13-2020INFLOW (KAF)769878
103PDTO3UMATILLA-AT PENDLETON01-13-2020DISCHARGE (KAF)18219295
104GIBO3UMATILLA-NEAR GIBBON01-13-2020DISCHARGE (KAF)8878114
105UMAO3UMATILLA-NEAR UMATILLA01-13-2020DISCHARGE (KAF)14718082
106TCHW1WALLA WALLA-NEAR TOUCHET01-13-2020DISCHARGE (KAF)18722184
107WSRI1WEISER-NEAR WEISER01-13-2020DISCHARGE (KAF)32233795
108PESW1WENATCHEE-AT PESHASTIN01-13-2020DISCHARGE (KAF)51753297
109UNDW1WHITE SALMON-NEAR UNDERWOOD01-13-2020DISCHARGE (KAF)30034886
110RIDI1WILLOW CREEK-RIRIE DAM01-13-2020INFLOW (KAF)4730157
111EASW1YAKIMA-AT EASTON01-13-2020DISCHARGE (KAF)10099101
112KIOW1YAKIMA-AT KIONA01-13-2020DISCHARGE (KAF)74894979
113UMTW1YAKIMA-AT UMTANUM01-13-2020DISCHARGE (KAF)476469101
114KEDW1YAKIMA-KEECHELUS LAKE01-13-2020INFLOW (KAF)9870141
115PARW1YAKIMA-NEAR PARKER01-13-2020DISCHARGE (KAF)52061385